Terug naar catalogus

QIANFAN-90

ActiefCommunicatiePO
NORAD 63176·PAYLOAD·🇨🇳 China

Gelanceerd Mar 11, 2025 vanaf Wenchang Space Launch Site

Loading…

Volgende Passages (komende 24 uur)

TLE

VersSource: Space-Track

Epoch: Sep 14, 2026, 13:37 UTC

1 63176U 25046T   26257.56802911  .00000030  00000-0  28258-4 0  9996
2 63176  88.9653 291.3786 0015029  53.4030 306.8501 13.51019818 84666

Volg QIANFAN-90 in realtime met AllMySat

Download on the App Store